CW1490 Weather Reports


Display with metric or nautical units.
time (UTC)temp
F
wind
direction
speed
MPH
gust
MPH
rain 1hr
in
rain 24hr
in
rain mn
in
humidity
%
barometer
mb
20160530045101 61 184 1.0 5.0 0.00 0.00 0.00 88 1017.5
20160530043559 61 199 2.0 4.0 0.00 0.00 0.00 87 1017.9
20160530042057 62 184 3.0 6.0 0.00 0.00 0.00 87 1018.2
20160530040554 62 189 2.0 5.0 0.00 0.00 0.00 87 1018.4
20160530035053 62 236 2.0 6.0 0.00 0.00 0.00 87 1018.4
20160530033553 62 156 3.0 6.0 0.00 0.00 0.00 87 1018.4
20160530032053 62 211 2.0 4.0 0.00 0.00 0.00 87 1018.4
20160530030552 63 222 2.0 4.0 0.00 0.00 0.00 87 1018.5
20160530025052 63 131 2.0 3.0 0.00 0.00 0.00 87 1018.7
20160530023551 63 160 0.0 3.0 0.00 0.00 0.00 86 1018.9
20160530022051 63 190 1.0 3.0 0.00 0.00 0.00 86 1019.0
20160530020549 63 126 1.0 6.0 0.00 0.00 0.00 85 1019.1
20160530015049 64 202 1.0 3.0 0.00 0.00 0.00 85 1019.2
20160530013549 64 183 2.0 4.0 0.00 0.00 0.00 85 1019.0
20160530012048 64 217 1.0 4.0 0.00 0.00 0.00 84 1019.0
20160530010548 65 209 0.0 3.0 0.00 0.00 0.00 84 1019.0
20160530005047 65 166 2.0 5.0 0.00 0.00 0.00 83 1018.9
20160530003547 65 218 2.0 6.0 0.00 0.00 0.00 83 1019.0
20160530002047 66 201 1.0 7.0 0.00 0.00 0.00 83 1018.9
20160530000546 66 178 1.0 6.0 0.00 0.00 0.00 83 1018.8
20160529235045 67 228 1.0 4.0 0.00 0.00 0.00 82 1019.0
20160529233545 67 109 1.0 6.0 0.00 0.00 0.00 82 1018.9
20160529232044 67 138 1.0 4.0 0.00 0.00 0.00 81 1018.9
20160529230544 68 59 2.0 5.0 0.00 0.00 0.00 81 1018.8
20160529225143 69 76 2.0 6.0 0.00 0.00 0.00 80 1018.8
20160529223543 70 74 3.0 6.0 0.00 0.00 0.00 80 1018.6
20160529222042 71 3 1.0 3.0 0.00 0.00 0.00 79 1018.1
20160529220541 71 233 3.0 7.0 0.00 0.00 0.00 79 1017.9
20160529215041 72 136 1.0 4.0 0.00 0.00 0.00 80 1017.9
20160529213540 72 193 4.0 8.0 0.00 0.00 0.00 79 1018.0
20160529212039 73 207 3.0 7.0 0.00 0.00 0.00 79 1018.2
20160529210536 74 227 2.0 6.0 0.00 0.00 0.00 79 1018.2
20160529205036 74 203 2.0 4.0 0.00 0.00 0.00 81 1018.3
20160529203535 75 307 0.0 3.0 0.00 0.00 0.00 81 1018.4
20160529202035 75 52 1.0 2.0 0.00 0.00 0.00 80 1018.4
20160529200534 75 52 0.0 3.0 0.00 0.00 0.00 79 1018.3
20160529195033 74 53 1.0 3.0 0.00 0.00 0.00 79 1018.5
20160529193532 74 53 1.0 3.0 0.00 0.00 0.00 80 1018.7
20160529192031 74 53 1.0 2.0 0.00 0.00 0.00 79 1018.7
20160529190531 74 53 1.0 6.0 0.00 0.00 0.00 79 1018.8
20160529185030 74 50 2.0 5.0 0.00 0.00 0.00 80 1018.5
20160529183527 73 27 0.0 3.0 0.00 0.00 0.00 81 1019.0
20160529182027 73 22 1.0 3.0 0.00 0.00 0.00 80 1019.2
20160529180527 73 36 0.0 4.0 0.00 0.00 0.00 80 1019.5
20160529175026 73 84 0.0 3.0 0.00 0.00 0.00 79 1019.6
20160529173523 73 53 0.0 3.0 0.00 0.00 0.00 80 1019.7
20160529172022 72 168 0.0 3.0 0.00 0.00 0.00 81 1019.8
20160529170521 72 145 2.0 6.0 0.00 0.00 0.00 81 1019.9
20160529165121 72 59 2.0 6.0 0.00 0.00 0.00 81 1019.8
20160529163720 72 111 2.0 8.0 0.00 0.00 0.00 81 1020.0
20160529162018 72 143 1.0 6.0 0.00 0.00 0.00 81 1020.1
20160529160517 72 63 1.0 5.0 0.00 0.00 0.00 83 1020.3
20160529155014 72 90 0.0 4.0 0.00 0.00 0.00 83 1020.4
20160529153512 71 79 1.0 5.0 0.00 0.00 0.00 84 1020.5
20160529152009 71 158 1.0 4.0 0.00 0.00 0.00 84 1020.6
20160529150507 71 48 1.0 5.0 0.00 0.00 0.00 84 1020.7
20160529145006 71 49 1.0 8.0 0.00 0.00 0.00 85 1020.5
20160529143504 71 81 1.0 4.0 0.00 0.00 0.00 85 1020.6
20160529142004 71 114 1.0 4.0 0.00 0.00 0.00 86 1020.6
20160529140502 70 55 0.0 3.0 0.00 0.00 0.00 87 1020.6
20160529134959 70 85 2.0 4.0 0.00 0.00 0.00 88 1020.6
20160529133459 70 20 2.0 5.0 0.00 0.00 0.00 88 1020.6
20160529131957 69 41 3.0 5.0 0.00 0.00 0.00 90 1020.6
20160529130453 69 42 2.0 6.0 0.00 0.00 0.00 92 1020.6
20160529124950 68 9 1.0 5.0 0.00 0.00 0.00 94 1020.6
20160529123448 67 38 2.0 4.0 0.00 0.00 0.00 95 1020.6
20160529121945 67 47 2.0 4.0 0.00 0.00 0.00 96 1020.6
20160529120443 66 40 2.0 4.0 0.00 0.00 0.00 96 1020.6
20160529114941 65 53 0.0 0.0 0.00 0.00 0.00 96 1020.5
20160529113439 65 53 0.0 0.0 0.00 0.00 0.00 96 1020.4
20160529111938 64 46 0.0 0.0 0.00 0.00 0.00 96 1020.3
20160529110437 64 49 0.0 0.0 0.00 0.00 0.00 96 1020.3
20160529104934 63 49 0.0 2.0 0.00 0.00 0.00 96 1020.1
20160529103431 62 49 1.0 3.0 0.00 0.00 0.00 95 1020.0
20160529101928 62 84 1.0 3.0 0.00 0.00 0.00 95 1019.9
20160529100426 62 86 0.0 0.0 0.00 0.00 0.00 95 1019.9
20160529094924 62 86 0.0 1.0 0.00 0.00 0.00 95 1019.8
20160529093420 62 3 0.0 1.0 0.00 0.00 0.00 95 1019.4
20160529092118 62 3 0.0 0.0 0.00 0.00 0.00 95 1019.2
20160529090416 62 3 0.0 0.0 0.00 0.00 0.00 95 1019.0
20160529084915 62 3 0.0 2.0 0.00 0.00 0.00 94 1019.0
20160529083413 62 3 0.0 1.0 0.00 0.00 0.00 94 1018.8
20160529081911 62 3 0.0 0.0 0.00 0.00 0.00 94 1018.6
20160529080411 63 3 0.0 3.0 0.00 0.00 0.00 94 1018.8
20160529074909 63 345 0.0 0.0 0.00 0.00 0.00 94 1018.8
20160529073407 63 345 0.0 0.0 0.00 0.00 0.00 93 1018.6
20160529071906 63 345 0.0 0.0 0.00 0.00 0.00 93 1018.5
20160529070405 63 345 1.0 3.0 0.00 0.00 0.00 93 1018.5
20160529064904 63 338 0.0 0.0 0.00 0.00 0.00 93 1018.6
20160529063403 64 338 0.0 0.0 0.00 0.00 0.00 92 1018.6
20160529061901 64 338 0.0 0.0 0.00 0.00 0.00 92 1018.6
20160529060400 64 338 0.0 0.0 0.00 0.00 0.00 92 1018.7
20160529054859 64 338 0.0 0.0 0.00 0.00 0.00 91 1018.6
20160529053357 65 338 0.0 0.0 0.00 0.00 0.00 91 1018.7
20160529051856 65 338 0.0 0.0 0.00 0.00 0.00 91 1018.6
20160529050354 65 338 0.0 0.0 0.00 0.00 0.00 91 1018.6